Index of /20260509/WXO-DD/model_rdps/10km/18/084
Name Last modified Size Description
Parent Directory -
20260509T18Z_MSC_RDPS_AbsoluteVorticity_IsbL-0250_RLatLon0.09_PT084H.grib2 2026-05-09 21:04 606K
20260509T18Z_MSC_RDPS_AbsoluteVorticity_IsbL-0500_RLatLon0.09_PT084H.grib2 2026-05-09 21:04 559K
20260509T18Z_MSC_RDPS_AbsoluteVorticity_IsbL-0700_RLatLon0.09_PT084H.grib2 2026-05-09 21:04 625K
20260509T18Z_MSC_RDPS_AbsoluteVorticity_IsbL-0850_RLatLon0.09_PT084H.grib2 2026-05-09 21:04 776K
20260509T18Z_MSC_RDPS_AirTemp_AGL-120m_RLatLon0.09_PT084H.grib2 2026-05-09 21:04 376K
20260509T18Z_MSC_RDPS_AirTemp_AGL-2m_RLatLon0.09_PT084H.grib2 2026-05-09 21:04 625K
20260509T18Z_MSC_RDPS_AirTemp_AGL-40m_RLatLon0.09_PT084H.grib2 2026-05-09 21:04 393K
20260509T18Z_MSC_RDPS_AirTemp_AGL-80m_RLatLon0.09_PT084H.grib2 2026-05-09 21:04 383K
20260509T18Z_MSC_RDPS_AirTemp_IsbL-0001_RLatLon0.09_PT084H.grib2 2026-05-09 21:04 301K
20260509T18Z_MSC_RDPS_AirTemp_IsbL-0005_RLatLon0.09_PT084H.grib2 2026-05-09 21:04 375K
20260509T18Z_MSC_RDPS_AirTemp_IsbL-0010_RLatLon0.09_PT084H.grib2 2026-05-09 21:04 386K
20260509T18Z_MSC_RDPS_AirTemp_IsbL-0020_RLatLon0.09_PT084H.grib2 2026-05-09 21:04 314K
20260509T18Z_MSC_RDPS_AirTemp_IsbL-0030_RLatLon0.09_PT084H.grib2 2026-05-09 21:04 335K
20260509T18Z_MSC_RDPS_AirTemp_IsbL-0050_RLatLon0.09_PT084H.grib2 2026-05-09 21:04 306K
20260509T18Z_MSC_RDPS_AirTemp_IsbL-0100_RLatLon0.09_PT084H.grib2 2026-05-09 21:04 386K
20260509T18Z_MSC_RDPS_AirTemp_IsbL-0150_RLatLon0.09_PT084H.grib2 2026-05-09 21:04 403K
20260509T18Z_MSC_RDPS_AirTemp_IsbL-0175_RLatLon0.09_PT084H.grib2 2026-05-09 21:04 399K
20260509T18Z_MSC_RDPS_AirTemp_IsbL-0200_RLatLon0.09_PT084H.grib2 2026-05-09 21:04 403K
20260509T18Z_MSC_RDPS_AirTemp_IsbL-0225_RLatLon0.09_PT084H.grib2 2026-05-09 21:04 406K
20260509T18Z_MSC_RDPS_AirTemp_IsbL-0250_RLatLon0.09_PT084H.grib2 2026-05-09 21:04 416K
20260509T18Z_MSC_RDPS_AirTemp_IsbL-0275_RLatLon0.09_PT084H.grib2 2026-05-09 21:04 396K
20260509T18Z_MSC_RDPS_AirTemp_IsbL-0300_RLatLon0.09_PT084H.grib2 2026-05-09 21:04 401K
20260509T18Z_MSC_RDPS_AirTemp_IsbL-0350_RLatLon0.09_PT084H.grib2 2026-05-09 21:04 411K
20260509T18Z_MSC_RDPS_AirTemp_IsbL-0400_RLatLon0.09_PT084H.grib2 2026-05-09 21:04 416K
20260509T18Z_MSC_RDPS_AirTemp_IsbL-0450_RLatLon0.09_PT084H.grib2 2026-05-09 21:04 426K
20260509T18Z_MSC_RDPS_AirTemp_IsbL-0500_RLatLon0.09_PT084H.grib2 2026-05-09 21:04 437K
20260509T18Z_MSC_RDPS_AirTemp_IsbL-0550_RLatLon0.09_PT084H.grib2 2026-05-09 21:04 458K
20260509T18Z_MSC_RDPS_AirTemp_IsbL-0600_RLatLon0.09_PT084H.grib2 2026-05-09 21:04 480K
20260509T18Z_MSC_RDPS_AirTemp_IsbL-0650_RLatLon0.09_PT084H.grib2 2026-05-09 21:04 495K
20260509T18Z_MSC_RDPS_AirTemp_IsbL-0700_RLatLon0.09_PT084H.grib2 2026-05-09 21:04 483K
20260509T18Z_MSC_RDPS_AirTemp_IsbL-0750_RLatLon0.09_PT084H.grib2 2026-05-09 21:04 520K
20260509T18Z_MSC_RDPS_AirTemp_IsbL-0800_RLatLon0.09_PT084H.grib2 2026-05-09 21:04 571K
20260509T18Z_MSC_RDPS_AirTemp_IsbL-0850_RLatLon0.09_PT084H.grib2 2026-05-09 21:04 626K
20260509T18Z_MSC_RDPS_AirTemp_IsbL-0875_RLatLon0.09_PT084H.grib2 2026-05-09 21:04 645K
20260509T18Z_MSC_RDPS_AirTemp_IsbL-0900_RLatLon0.09_PT084H.grib2 2026-05-09 21:04 659K
20260509T18Z_MSC_RDPS_AirTemp_IsbL-0925_RLatLon0.09_PT084H.grib2 2026-05-09 21:04 527K
20260509T18Z_MSC_RDPS_AirTemp_IsbL-0950_RLatLon0.09_PT084H.grib2 2026-05-09 21:04 532K
20260509T18Z_MSC_RDPS_AirTemp_IsbL-0970_RLatLon0.09_PT084H.grib2 2026-05-09 21:04 529K
20260509T18Z_MSC_RDPS_AirTemp_IsbL-0985_RLatLon0.09_PT084H.grib2 2026-05-09 21:04 516K
20260509T18Z_MSC_RDPS_AirTemp_IsbL-1000_RLatLon0.09_PT084H.grib2 2026-05-09 21:04 624K
20260509T18Z_MSC_RDPS_AirTemp_IsbL-1015_RLatLon0.09_PT084H.grib2 2026-05-09 21:04 499K
20260509T18Z_MSC_RDPS_Albedo_Sfc_RLatLon0.09_PT084H.grib2 2026-05-09 21:04 155K
20260509T18Z_MSC_RDPS_CAPE_Sfc_RLatLon0.09_PT084H.grib2 2026-05-09 21:04 1.6M
20260509T18Z_MSC_RDPS_CIN_Sfc_RLatLon0.09_PT084H.grib2 2026-05-09 21:04 1.2M
20260509T18Z_MSC_RDPS_CloudWater_EAtm_RLatLon0.09_PT084H.grib2 2026-05-09 21:04 232K
20260509T18Z_MSC_RDPS_ConvectivePrecip-Accum_Sfc_RLatLon0.09_PT084H.grib2 2026-05-09 21:04 1.5M
20260509T18Z_MSC_RDPS_DewPointDepression_AGL-2m_RLatLon0.09_PT084H.grib2 2026-05-09 21:04 398K
20260509T18Z_MSC_RDPS_DewPointDepression_IsbL-0001_RLatLon0.09_PT084H.grib2 2026-05-09 21:04 193
20260509T18Z_MSC_RDPS_DewPointDepression_IsbL-0005_RLatLon0.09_PT084H.grib2 2026-05-09 21:04 193
20260509T18Z_MSC_RDPS_DewPointDepression_IsbL-0010_RLatLon0.09_PT084H.grib2 2026-05-09 21:04 193
20260509T18Z_MSC_RDPS_DewPointDepression_IsbL-0020_RLatLon0.09_PT084H.grib2 2026-05-09 21:04 193
20260509T18Z_MSC_RDPS_DewPointDepression_IsbL-0030_RLatLon0.09_PT084H.grib2 2026-05-09 21:04 193
20260509T18Z_MSC_RDPS_DewPointDepression_IsbL-0050_RLatLon0.09_PT084H.grib2 2026-05-09 21:04 74K
20260509T18Z_MSC_RDPS_DewPointDepression_IsbL-0100_RLatLon0.09_PT084H.grib2 2026-05-09 21:04 109K
20260509T18Z_MSC_RDPS_DewPointDepression_IsbL-0150_RLatLon0.09_PT084H.grib2 2026-05-09 21:04 140K
20260509T18Z_MSC_RDPS_DewPointDepression_IsbL-0175_RLatLon0.09_PT084H.grib2 2026-05-09 21:04 177K
20260509T18Z_MSC_RDPS_DewPointDepression_IsbL-0200_RLatLon0.09_PT084H.grib2 2026-05-09 21:04 226K
20260509T18Z_MSC_RDPS_DewPointDepression_IsbL-0225_RLatLon0.09_PT084H.grib2 2026-05-09 21:04 265K
20260509T18Z_MSC_RDPS_DewPointDepression_IsbL-0250_RLatLon0.09_PT084H.grib2 2026-05-09 21:04 309K
20260509T18Z_MSC_RDPS_DewPointDepression_IsbL-0275_RLatLon0.09_PT084H.grib2 2026-05-09 21:04 318K
20260509T18Z_MSC_RDPS_DewPointDepression_IsbL-0300_RLatLon0.09_PT084H.grib2 2026-05-09 21:04 337K
20260509T18Z_MSC_RDPS_DewPointDepression_IsbL-0350_RLatLon0.09_PT084H.grib2 2026-05-09 21:04 341K
20260509T18Z_MSC_RDPS_DewPointDepression_IsbL-0400_RLatLon0.09_PT084H.grib2 2026-05-09 21:04 354K
20260509T18Z_MSC_RDPS_DewPointDepression_IsbL-0450_RLatLon0.09_PT084H.grib2 2026-05-09 21:04 366K
20260509T18Z_MSC_RDPS_DewPointDepression_IsbL-0500_RLatLon0.09_PT084H.grib2 2026-05-09 21:04 369K
20260509T18Z_MSC_RDPS_DewPointDepression_IsbL-0550_RLatLon0.09_PT084H.grib2 2026-05-09 21:04 380K
20260509T18Z_MSC_RDPS_DewPointDepression_IsbL-0600_RLatLon0.09_PT084H.grib2 2026-05-09 21:04 392K
20260509T18Z_MSC_RDPS_DewPointDepression_IsbL-0650_RLatLon0.09_PT084H.grib2 2026-05-09 21:04 398K
20260509T18Z_MSC_RDPS_DewPointDepression_IsbL-0700_RLatLon0.09_PT084H.grib2 2026-05-09 21:04 407K
20260509T18Z_MSC_RDPS_DewPointDepression_IsbL-0750_RLatLon0.09_PT084H.grib2 2026-05-09 21:04 425K
20260509T18Z_MSC_RDPS_DewPointDepression_IsbL-0800_RLatLon0.09_PT084H.grib2 2026-05-09 21:04 454K
20260509T18Z_MSC_RDPS_DewPointDepression_IsbL-0850_RLatLon0.09_PT084H.grib2 2026-05-09 21:04 475K
20260509T18Z_MSC_RDPS_DewPointDepression_IsbL-0875_RLatLon0.09_PT084H.grib2 2026-05-09 21:04 472K
20260509T18Z_MSC_RDPS_DewPointDepression_IsbL-0900_RLatLon0.09_PT084H.grib2 2026-05-09 21:04 462K
20260509T18Z_MSC_RDPS_DewPointDepression_IsbL-0925_RLatLon0.09_PT084H.grib2 2026-05-09 21:04 445K
20260509T18Z_MSC_RDPS_DewPointDepression_IsbL-0950_RLatLon0.09_PT084H.grib2 2026-05-09 21:04 439K
20260509T18Z_MSC_RDPS_DewPointDepression_IsbL-0970_RLatLon0.09_PT084H.grib2 2026-05-09 21:04 433K
20260509T18Z_MSC_RDPS_DewPointDepression_IsbL-0985_RLatLon0.09_PT084H.grib2 2026-05-09 21:04 429K
20260509T18Z_MSC_RDPS_DewPointDepression_IsbL-1000_RLatLon0.09_PT084H.grib2 2026-05-09 21:04 423K
20260509T18Z_MSC_RDPS_DewPointDepression_IsbL-1015_RLatLon0.09_PT084H.grib2 2026-05-09 21:04 410K
20260509T18Z_MSC_RDPS_DewPoint_AGL-2m_RLatLon0.09_PT084H.grib2 2026-05-09 21:04 389K
20260509T18Z_MSC_RDPS_DownwardLongwaveRadiationFlux-Accum_Sfc_RLatLon0.09_PT084H.grib2 2026-05-09 21:04 443K
20260509T18Z_MSC_RDPS_DownwardShortwaveRadiationFlux-Accum_NTAtm_RLatLon0.09_PT084H.grib2 2026-05-09 21:04 117K
20260509T18Z_MSC_RDPS_DownwardShortwaveRadiationFlux-Accum_Sfc_RLatLon0.09_PT084H.grib2 2026-05-09 21:04 658K
20260509T18Z_MSC_RDPS_FreezingRain-Accum12h_Sfc_RLatLon0.09_PT084H.grib2 2026-05-09 21:04 87K
20260509T18Z_MSC_RDPS_FreezingRain-Accum1h_Sfc_RLatLon0.09_PT084H.grib2 2026-05-09 21:04 35K
20260509T18Z_MSC_RDPS_FreezingRain-Accum24h_Sfc_RLatLon0.09_PT084H.grib2 2026-05-09 21:04 135K
20260509T18Z_MSC_RDPS_FreezingRain-Accum3h_Sfc_RLatLon0.09_PT084H.grib2 2026-05-09 21:04 40K
20260509T18Z_MSC_RDPS_FreezingRain-Accum6h_Sfc_RLatLon0.09_PT084H.grib2 2026-05-09 21:04 58K
20260509T18Z_MSC_RDPS_FreezingRain-Accum_Sfc_RLatLon0.09_PT084H.grib2 2026-05-09 21:04 233K
20260509T18Z_MSC_RDPS_GeopotentialHeight_IsbL-0001_RLatLon0.09_PT084H.grib2 2026-05-09 21:04 271K
20260509T18Z_MSC_RDPS_GeopotentialHeight_IsbL-0005_RLatLon0.09_PT084H.grib2 2026-05-09 21:04 304K
20260509T18Z_MSC_RDPS_GeopotentialHeight_IsbL-0010_RLatLon0.09_PT084H.grib2 2026-05-09 21:04 305K
20260509T18Z_MSC_RDPS_GeopotentialHeight_IsbL-0020_RLatLon0.09_PT084H.grib2 2026-05-09 21:04 304K
20260509T18Z_MSC_RDPS_GeopotentialHeight_IsbL-0030_RLatLon0.09_PT084H.grib2 2026-05-09 21:04 307K
20260509T18Z_MSC_RDPS_GeopotentialHeight_IsbL-0050_RLatLon0.09_PT084H.grib2 2026-05-09 21:04 307K
20260509T18Z_MSC_RDPS_GeopotentialHeight_IsbL-0100_RLatLon0.09_PT084H.grib2 2026-05-09 21:04 281K
20260509T18Z_MSC_RDPS_GeopotentialHeight_IsbL-0150_RLatLon0.09_PT084H.grib2 2026-05-09 21:04 222K
20260509T18Z_MSC_RDPS_GeopotentialHeight_IsbL-0175_RLatLon0.09_PT084H.grib2 2026-05-09 21:04 224K
20260509T18Z_MSC_RDPS_GeopotentialHeight_IsbL-0200_RLatLon0.09_PT084H.grib2 2026-05-09 21:04 227K
20260509T18Z_MSC_RDPS_GeopotentialHeight_IsbL-0225_RLatLon0.09_PT084H.grib2 2026-05-09 21:04 228K
20260509T18Z_MSC_RDPS_GeopotentialHeight_IsbL-0250_RLatLon0.09_PT084H.grib2 2026-05-09 21:04 230K
20260509T18Z_MSC_RDPS_GeopotentialHeight_IsbL-0275_RLatLon0.09_PT084H.grib2 2026-05-09 21:04 228K
20260509T18Z_MSC_RDPS_GeopotentialHeight_IsbL-0300_RLatLon0.09_PT084H.grib2 2026-05-09 21:04 229K
20260509T18Z_MSC_RDPS_GeopotentialHeight_IsbL-0350_RLatLon0.09_PT084H.grib2 2026-05-09 21:04 225K
20260509T18Z_MSC_RDPS_GeopotentialHeight_IsbL-0400_RLatLon0.09_PT084H.grib2 2026-05-09 21:04 294K
20260509T18Z_MSC_RDPS_GeopotentialHeight_IsbL-0450_RLatLon0.09_PT084H.grib2 2026-05-09 21:04 290K
20260509T18Z_MSC_RDPS_GeopotentialHeight_IsbL-0500_RLatLon0.09_PT084H.grib2 2026-05-09 21:04 285K
20260509T18Z_MSC_RDPS_GeopotentialHeight_IsbL-0550_RLatLon0.09_PT084H.grib2 2026-05-09 21:04 282K
20260509T18Z_MSC_RDPS_GeopotentialHeight_IsbL-0600_RLatLon0.09_PT084H.grib2 2026-05-09 21:04 252K
20260509T18Z_MSC_RDPS_GeopotentialHeight_IsbL-0650_RLatLon0.09_PT084H.grib2 2026-05-09 21:04 250K
20260509T18Z_MSC_RDPS_GeopotentialHeight_IsbL-0700_RLatLon0.09_PT084H.grib2 2026-05-09 21:04 331K
20260509T18Z_MSC_RDPS_GeopotentialHeight_IsbL-0750_RLatLon0.09_PT084H.grib2 2026-05-09 21:04 333K
20260509T18Z_MSC_RDPS_GeopotentialHeight_IsbL-0800_RLatLon0.09_PT084H.grib2 2026-05-09 21:04 341K
20260509T18Z_MSC_RDPS_GeopotentialHeight_IsbL-0850_RLatLon0.09_PT084H.grib2 2026-05-09 21:04 382K
20260509T18Z_MSC_RDPS_GeopotentialHeight_IsbL-0875_RLatLon0.09_PT084H.grib2 2026-05-09 21:04 385K
20260509T18Z_MSC_RDPS_GeopotentialHeight_IsbL-0900_RLatLon0.09_PT084H.grib2 2026-05-09 21:04 389K
20260509T18Z_MSC_RDPS_GeopotentialHeight_IsbL-0925_RLatLon0.09_PT084H.grib2 2026-05-09 21:04 392K
20260509T18Z_MSC_RDPS_GeopotentialHeight_IsbL-0950_RLatLon0.09_PT084H.grib2 2026-05-09 21:04 395K
20260509T18Z_MSC_RDPS_GeopotentialHeight_IsbL-0970_RLatLon0.09_PT084H.grib2 2026-05-09 21:04 400K
20260509T18Z_MSC_RDPS_GeopotentialHeight_IsbL-0985_RLatLon0.09_PT084H.grib2 2026-05-09 21:04 409K
20260509T18Z_MSC_RDPS_GeopotentialHeight_IsbL-1000_RLatLon0.09_PT084H.grib2 2026-05-09 21:04 422K
20260509T18Z_MSC_RDPS_GeopotentialHeight_IsbL-1015_RLatLon0.09_PT084H.grib2 2026-05-09 21:04 439K
20260509T18Z_MSC_RDPS_HighLowPressure_MSL_RLatLon0.09_PT084H.json 2026-05-09 20:57 23K
20260509T18Z_MSC_RDPS_Humidex_Sfc_RLatLon0.09_PT084H.grib2 2026-05-09 21:04 2.4M
20260509T18Z_MSC_RDPS_IcePellets-Accum12h_Sfc_RLatLon0.09_PT084H.grib2 2026-05-09 21:04 22K
20260509T18Z_MSC_RDPS_IcePellets-Accum1h_Sfc_RLatLon0.09_PT084H.grib2 2026-05-09 21:04 14K
20260509T18Z_MSC_RDPS_IcePellets-Accum24h_Sfc_RLatLon0.09_PT084H.grib2 2026-05-09 21:04 34K
20260509T18Z_MSC_RDPS_IcePellets-Accum3h_Sfc_RLatLon0.09_PT084H.grib2 2026-05-09 21:04 16K
20260509T18Z_MSC_RDPS_IcePellets-Accum6h_Sfc_RLatLon0.09_PT084H.grib2 2026-05-09 21:04 22K
20260509T18Z_MSC_RDPS_IcePellets-Accum_Sfc_RLatLon0.09_PT084H.grib2 2026-05-09 21:04 61K
20260509T18Z_MSC_RDPS_KIndex_Sfc_RLatLon0.09_PT084H.grib2 2026-05-09 21:04 2.5M
20260509T18Z_MSC_RDPS_LatentHeatNetFlux_Sfc_RLatLon0.09_PT084H.grib2 2026-05-09 21:04 411K
20260509T18Z_MSC_RDPS_LiftedIndex-MU-VT_IsbL-0500_RLatLon0.09_PT084H.grib2 2026-05-09 21:04 2.4M
20260509T18Z_MSC_RDPS_NetLongwaveRadiationFlux-Accum_Sfc_RLatLon0.09_PT084H.grib2 2026-05-09 21:04 456K
20260509T18Z_MSC_RDPS_NetShortwaveRadiationFlux-Accum_Sfc_RLatLon0.09_PT084H.grib2 2026-05-09 21:04 658K
20260509T18Z_MSC_RDPS_PlanetaryBoundaryLayerHeight_Sfc_RLatLon0.09_PT084H.grib2 2026-05-09 21:04 1.1M
20260509T18Z_MSC_RDPS_Precip-Accum12h_Sfc_RLatLon0.09_PT084H.grib2 2026-05-09 21:04 1.7M
20260509T18Z_MSC_RDPS_Precip-Accum1h_Sfc_RLatLon0.09_PT084H.grib2 2026-05-09 21:04 1.2M
20260509T18Z_MSC_RDPS_Precip-Accum24h_Sfc_RLatLon0.09_PT084H.grib2 2026-05-09 21:04 2.0M
20260509T18Z_MSC_RDPS_Precip-Accum3h_Sfc_RLatLon0.09_PT084H.grib2 2026-05-09 21:04 1.4M
20260509T18Z_MSC_RDPS_Precip-Accum6h_Sfc_RLatLon0.09_PT084H.grib2 2026-05-09 21:04 1.5M
20260509T18Z_MSC_RDPS_Precip-Accum_Sfc_RLatLon0.09_PT084H.grib2 2026-05-09 21:04 2.2M
20260509T18Z_MSC_RDPS_PrecipRate_Sfc_RLatLon0.09_PT084H.grib2 2026-05-09 21:04 168K
20260509T18Z_MSC_RDPS_PrecipType-Instant_Sfc_RLatLon0.09_PT084H.grib2 2026-05-09 21:04 594K
20260509T18Z_MSC_RDPS_Pressure-Trend3h_Sfc_RLatLon0.09_PT084H.grib2 2026-05-09 21:04 1.2M
20260509T18Z_MSC_RDPS_Pressure_MSL_RLatLon0.09_PT084H.grib2 2026-05-09 21:04 321K
20260509T18Z_MSC_RDPS_Pressure_PVU-1.5_RLatLon0.09_PT084H.grib2 2026-05-09 21:04 2.5M
20260509T18Z_MSC_RDPS_Pressure_PVU-1_RLatLon0.09_PT084H.grib2 2026-05-09 21:04 2.4M
20260509T18Z_MSC_RDPS_Pressure_PVU-2_RLatLon0.09_PT084H.grib2 2026-05-09 21:04 2.4M
20260509T18Z_MSC_RDPS_Pressure_Sfc_RLatLon0.09_PT084H.grib2 2026-05-09 21:04 496K
20260509T18Z_MSC_RDPS_RadiativeTemp_Sfc_RLatLon0.09_PT084H.grib2 2026-05-09 21:04 390K
20260509T18Z_MSC_RDPS_Rain-Accum12h_Sfc_RLatLon0.09_PT084H.grib2 2026-05-09 21:04 1.3M
20260509T18Z_MSC_RDPS_Rain-Accum1h_Sfc_RLatLon0.09_PT084H.grib2 2026-05-09 21:04 591K
20260509T18Z_MSC_RDPS_Rain-Accum24h_Sfc_RLatLon0.09_PT084H.grib2 2026-05-09 21:04 1.6M
20260509T18Z_MSC_RDPS_Rain-Accum3h_Sfc_RLatLon0.09_PT084H.grib2 2026-05-09 21:04 673K
20260509T18Z_MSC_RDPS_Rain-Accum6h_Sfc_RLatLon0.09_PT084H.grib2 2026-05-09 21:04 1.0M
20260509T18Z_MSC_RDPS_Rain-Accum_Sfc_RLatLon0.09_PT084H.grib2 2026-05-09 21:04 1.9M
20260509T18Z_MSC_RDPS_RelativeHumidity_AGL-2m_RLatLon0.09_PT084H.grib2 2026-05-09 21:04 1.0M
20260509T18Z_MSC_RDPS_RelativeHumidity_IsbL-0010_RLatLon0.09_PT084H.grib2 2026-05-09 21:04 373K
20260509T18Z_MSC_RDPS_RelativeHumidity_IsbL-0020_RLatLon0.09_PT084H.grib2 2026-05-09 21:04 562K
20260509T18Z_MSC_RDPS_RelativeHumidity_IsbL-0030_RLatLon0.09_PT084H.grib2 2026-05-09 21:04 606K
20260509T18Z_MSC_RDPS_RelativeHumidity_IsbL-0050_RLatLon0.09_PT084H.grib2 2026-05-09 21:04 348K
20260509T18Z_MSC_RDPS_RelativeHumidity_IsbL-0100_RLatLon0.09_PT084H.grib2 2026-05-09 21:04 269K
20260509T18Z_MSC_RDPS_RelativeHumidity_IsbL-0150_RLatLon0.09_PT084H.grib2 2026-05-09 21:04 401K
20260509T18Z_MSC_RDPS_RelativeHumidity_IsbL-0175_RLatLon0.09_PT084H.grib2 2026-05-09 21:04 468K
20260509T18Z_MSC_RDPS_RelativeHumidity_IsbL-0200_RLatLon0.09_PT084H.grib2 2026-05-09 21:04 552K
20260509T18Z_MSC_RDPS_RelativeHumidity_IsbL-0225_RLatLon0.09_PT084H.grib2 2026-05-09 21:04 627K
20260509T18Z_MSC_RDPS_RelativeHumidity_IsbL-0250_RLatLon0.09_PT084H.grib2 2026-05-09 21:04 700K
20260509T18Z_MSC_RDPS_RelativeHumidity_IsbL-0275_RLatLon0.09_PT084H.grib2 2026-05-09 21:04 732K
20260509T18Z_MSC_RDPS_RelativeHumidity_IsbL-0300_RLatLon0.09_PT084H.grib2 2026-05-09 21:04 779K
20260509T18Z_MSC_RDPS_RelativeHumidity_IsbL-0350_RLatLon0.09_PT084H.grib2 2026-05-09 21:04 791K
20260509T18Z_MSC_RDPS_RelativeHumidity_IsbL-0400_RLatLon0.09_PT084H.grib2 2026-05-09 21:04 806K
20260509T18Z_MSC_RDPS_RelativeHumidity_IsbL-0450_RLatLon0.09_PT084H.grib2 2026-05-09 21:04 823K
20260509T18Z_MSC_RDPS_RelativeHumidity_IsbL-0500_RLatLon0.09_PT084H.grib2 2026-05-09 21:04 840K
20260509T18Z_MSC_RDPS_RelativeHumidity_IsbL-0550_RLatLon0.09_PT084H.grib2 2026-05-09 21:04 856K
20260509T18Z_MSC_RDPS_RelativeHumidity_IsbL-0600_RLatLon0.09_PT084H.grib2 2026-05-09 21:04 876K
20260509T18Z_MSC_RDPS_RelativeHumidity_IsbL-0650_RLatLon0.09_PT084H.grib2 2026-05-09 21:04 881K
20260509T18Z_MSC_RDPS_RelativeHumidity_IsbL-0700_RLatLon0.09_PT084H.grib2 2026-05-09 21:04 911K
20260509T18Z_MSC_RDPS_RelativeHumidity_IsbL-0750_RLatLon0.09_PT084H.grib2 2026-05-09 21:04 947K
20260509T18Z_MSC_RDPS_RelativeHumidity_IsbL-0800_RLatLon0.09_PT084H.grib2 2026-05-09 21:04 1.0M
20260509T18Z_MSC_RDPS_RelativeHumidity_IsbL-0850_RLatLon0.09_PT084H.grib2 2026-05-09 21:04 1.0M
20260509T18Z_MSC_RDPS_RelativeHumidity_IsbL-0875_RLatLon0.09_PT084H.grib2 2026-05-09 21:04 1.1M
20260509T18Z_MSC_RDPS_RelativeHumidity_IsbL-0900_RLatLon0.09_PT084H.grib2 2026-05-09 21:04 1.1M
20260509T18Z_MSC_RDPS_RelativeHumidity_IsbL-0925_RLatLon0.09_PT084H.grib2 2026-05-09 21:04 1.1M
20260509T18Z_MSC_RDPS_RelativeHumidity_IsbL-0950_RLatLon0.09_PT084H.grib2 2026-05-09 21:04 1.1M
20260509T18Z_MSC_RDPS_RelativeHumidity_IsbL-0970_RLatLon0.09_PT084H.grib2 2026-05-09 21:04 1.0M
20260509T18Z_MSC_RDPS_RelativeHumidity_IsbL-0985_RLatLon0.09_PT084H.grib2 2026-05-09 21:04 1.0M
20260509T18Z_MSC_RDPS_RelativeHumidity_IsbL-1000_RLatLon0.09_PT084H.grib2 2026-05-09 21:04 1.0M
20260509T18Z_MSC_RDPS_RelativeHumidity_IsbL-1015_RLatLon0.09_PT084H.grib2 2026-05-09 21:04 1.0M
20260509T18Z_MSC_RDPS_Runoff-Accum_Sfc_RLatLon0.09_PT084H.grib2 2026-05-09 21:04 62K
20260509T18Z_MSC_RDPS_SWEATIndex_Sfc_RLatLon0.09_PT084H.grib2 2026-05-09 21:04 2.4M
20260509T18Z_MSC_RDPS_SeeingIndex_EAtm_RLatLon0.09_PT084H.grib2 2026-05-09 21:04 1.1M
20260509T18Z_MSC_RDPS_SensibleHeatNetFlux_Sfc_RLatLon0.09_PT084H.grib2 2026-05-09 21:04 284K
20260509T18Z_MSC_RDPS_ShowalterIndex_IsbL-0500_RLatLon0.09_PT084H.grib2 2026-05-09 21:04 2.6M
20260509T18Z_MSC_RDPS_SkyTransparencyIndex_EAtm_RLatLon0.09_PT084H.grib2 2026-05-09 21:04 732K
20260509T18Z_MSC_RDPS_Snow-Accum12h_Sfc_RLatLon0.09_PT084H.grib2 2026-05-09 21:04 455K
20260509T18Z_MSC_RDPS_Snow-Accum1h_Sfc_RLatLon0.09_PT084H.grib2 2026-05-09 21:04 395K
20260509T18Z_MSC_RDPS_Snow-Accum24h_Sfc_RLatLon0.09_PT084H.grib2 2026-05-09 21:04 534K
20260509T18Z_MSC_RDPS_Snow-Accum3h_Sfc_RLatLon0.09_PT084H.grib2 2026-05-09 21:04 349K
20260509T18Z_MSC_RDPS_Snow-Accum6h_Sfc_RLatLon0.09_PT084H.grib2 2026-05-09 21:04 440K
20260509T18Z_MSC_RDPS_Snow-Accum_Sfc_RLatLon0.09_PT084H.grib2 2026-05-09 21:04 682K
20260509T18Z_MSC_RDPS_SnowDensity_Sfc_RLatLon0.09_PT084H.grib2 2026-05-09 21:04 169K
20260509T18Z_MSC_RDPS_SnowDepth_Sfc_RLatLon0.09_PT084H.grib2 2026-05-09 21:04 599K
20260509T18Z_MSC_RDPS_SoilTemp_DBS-0to10cm_RLatLon0.09_PT084H.grib2 2026-05-09 21:04 246K
20260509T18Z_MSC_RDPS_SoilTemp_Sfc_RLatLon0.09_PT084H.grib2 2026-05-09 21:04 284K
20260509T18Z_MSC_RDPS_SoilVolumetricIceContent_Sfc_RLatLon0.09_PT084H.grib2 2026-05-09 21:04 137K
20260509T18Z_MSC_RDPS_SoilVolumetricWaterContent_DBS-0to10cm_RLatLon0.09_PT084H.grib2 2026-05-09 21:04 299K
20260509T18Z_MSC_RDPS_SoilVolumetricWaterContent_DBS-0to1cm_RLatLon0.09_PT084H.grib2 2026-05-09 21:04 351K
20260509T18Z_MSC_RDPS_SpecificHumidity_AGL-120m_RLatLon0.09_PT084H.grib2 2026-05-09 21:04 501K
20260509T18Z_MSC_RDPS_SpecificHumidity_AGL-2m_RLatLon0.09_PT084H.grib2 2026-05-09 21:04 671K
20260509T18Z_MSC_RDPS_SpecificHumidity_AGL-40m_RLatLon0.09_PT084H.grib2 2026-05-09 21:04 507K
20260509T18Z_MSC_RDPS_SpecificHumidity_AGL-80m_RLatLon0.09_PT084H.grib2 2026-05-09 21:04 502K
20260509T18Z_MSC_RDPS_SpecificHumidity_IsbL-0001_RLatLon0.09_PT084H.grib2 2026-05-09 21:04 348K
20260509T18Z_MSC_RDPS_SpecificHumidity_IsbL-0005_RLatLon0.09_PT084H.grib2 2026-05-09 21:04 360K
20260509T18Z_MSC_RDPS_SpecificHumidity_IsbL-0010_RLatLon0.09_PT084H.grib2 2026-05-09 21:04 380K
20260509T18Z_MSC_RDPS_SpecificHumidity_IsbL-0020_RLatLon0.09_PT084H.grib2 2026-05-09 21:04 474K
20260509T18Z_MSC_RDPS_SpecificHumidity_IsbL-0030_RLatLon0.09_PT084H.grib2 2026-05-09 21:04 352K
20260509T18Z_MSC_RDPS_SpecificHumidity_IsbL-0050_RLatLon0.09_PT084H.grib2 2026-05-09 21:04 353K
20260509T18Z_MSC_RDPS_SpecificHumidity_IsbL-0100_RLatLon0.09_PT084H.grib2 2026-05-09 21:04 537K
20260509T18Z_MSC_RDPS_SpecificHumidity_IsbL-0150_RLatLon0.09_PT084H.grib2 2026-05-09 21:04 444K
20260509T18Z_MSC_RDPS_SpecificHumidity_IsbL-0175_RLatLon0.09_PT084H.grib2 2026-05-09 21:04 437K
20260509T18Z_MSC_RDPS_SpecificHumidity_IsbL-0200_RLatLon0.09_PT084H.grib2 2026-05-09 21:04 479K
20260509T18Z_MSC_RDPS_SpecificHumidity_IsbL-0225_RLatLon0.09_PT084H.grib2 2026-05-09 21:04 469K
20260509T18Z_MSC_RDPS_SpecificHumidity_IsbL-0250_RLatLon0.09_PT084H.grib2 2026-05-09 21:04 529K
20260509T18Z_MSC_RDPS_SpecificHumidity_IsbL-0275_RLatLon0.09_PT084H.grib2 2026-05-09 21:04 494K
20260509T18Z_MSC_RDPS_SpecificHumidity_IsbL-0300_RLatLon0.09_PT084H.grib2 2026-05-09 21:04 470K
20260509T18Z_MSC_RDPS_SpecificHumidity_IsbL-0350_RLatLon0.09_PT084H.grib2 2026-05-09 21:04 589K
20260509T18Z_MSC_RDPS_SpecificHumidity_IsbL-0400_RLatLon0.09_PT084H.grib2 2026-05-09 21:04 547K
20260509T18Z_MSC_RDPS_SpecificHumidity_IsbL-0450_RLatLon0.09_PT084H.grib2 2026-05-09 21:04 609K
20260509T18Z_MSC_RDPS_SpecificHumidity_IsbL-0500_RLatLon0.09_PT084H.grib2 2026-05-09 21:04 546K
20260509T18Z_MSC_RDPS_SpecificHumidity_IsbL-0550_RLatLon0.09_PT084H.grib2 2026-05-09 21:04 620K
20260509T18Z_MSC_RDPS_SpecificHumidity_IsbL-0600_RLatLon0.09_PT084H.grib2 2026-05-09 21:04 676K
20260509T18Z_MSC_RDPS_SpecificHumidity_IsbL-0650_RLatLon0.09_PT084H.grib2 2026-05-09 21:04 592K
20260509T18Z_MSC_RDPS_SpecificHumidity_IsbL-0700_RLatLon0.09_PT084H.grib2 2026-05-09 21:04 635K
20260509T18Z_MSC_RDPS_SpecificHumidity_IsbL-0750_RLatLon0.09_PT084H.grib2 2026-05-09 21:04 691K
20260509T18Z_MSC_RDPS_SpecificHumidity_IsbL-0800_RLatLon0.09_PT084H.grib2 2026-05-09 21:04 765K
20260509T18Z_MSC_RDPS_SpecificHumidity_IsbL-0850_RLatLon0.09_PT084H.grib2 2026-05-09 21:04 828K
20260509T18Z_MSC_RDPS_SpecificHumidity_IsbL-0875_RLatLon0.09_PT084H.grib2 2026-05-09 21:04 846K
20260509T18Z_MSC_RDPS_SpecificHumidity_IsbL-0900_RLatLon0.09_PT084H.grib2 2026-05-09 21:04 857K
20260509T18Z_MSC_RDPS_SpecificHumidity_IsbL-0925_RLatLon0.09_PT084H.grib2 2026-05-09 21:04 858K
20260509T18Z_MSC_RDPS_SpecificHumidity_IsbL-0950_RLatLon0.09_PT084H.grib2 2026-05-09 21:04 861K
20260509T18Z_MSC_RDPS_SpecificHumidity_IsbL-0970_RLatLon0.09_PT084H.grib2 2026-05-09 21:04 716K
20260509T18Z_MSC_RDPS_SpecificHumidity_IsbL-0985_RLatLon0.09_PT084H.grib2 2026-05-09 21:04 709K
20260509T18Z_MSC_RDPS_SpecificHumidity_IsbL-1000_RLatLon0.09_PT084H.grib2 2026-05-09 21:04 699K
20260509T18Z_MSC_RDPS_SpecificHumidity_IsbL-1015_RLatLon0.09_PT084H.grib2 2026-05-09 21:04 687K
20260509T18Z_MSC_RDPS_SpecificHumidity_Sfc_RLatLon0.09_PT084H.grib2 2026-05-09 21:04 311K
20260509T18Z_MSC_RDPS_StormRelativeHelicity_EtaL-10000_RLatLon0.09_PT084H.grib2 2026-05-09 21:04 1.1M
20260509T18Z_MSC_RDPS_StormSeverityIndex_EtaL-10000_RLatLon0.09_PT084H.grib2 2026-05-09 21:04 1.2M
20260509T18Z_MSC_RDPS_Thickness_IsbL-0850to0700_RLatLon0.09_PT084H.grib2 2026-05-09 21:04 244K
20260509T18Z_MSC_RDPS_Thickness_IsbL-1000to0500_RLatLon0.09_PT084H.grib2 2026-05-09 21:04 191K
20260509T18Z_MSC_RDPS_Thickness_IsbL-1000to0850_RLatLon0.09_PT084H.grib2 2026-05-09 21:04 257K
20260509T18Z_MSC_RDPS_TotalCloudCover_Sfc_RLatLon0.09_PT084H.grib2 2026-05-09 21:04 685K
20260509T18Z_MSC_RDPS_TotalTotalsIndex_Sfc_RLatLon0.09_PT084H.grib2 2026-05-09 21:04 2.4M
20260509T18Z_MSC_RDPS_UVIndex-ClearSky_Sfc_RLatLon0.09_PT084H.grib2 2026-05-09 21:04 104K
20260509T18Z_MSC_RDPS_UVIndex_Sfc_RLatLon0.09_PT084H.grib2 2026-05-09 21:04 191K
20260509T18Z_MSC_RDPS_UpwardLongwaveRadiationFlux_NTAtm_RLatLon0.09_PT084H.grib2 2026-05-09 21:04 487K
20260509T18Z_MSC_RDPS_UpwardShortwaveRadiationFlux_NTAtm_RLatLon0.09_PT084H.grib2 2026-05-09 21:04 154K
20260509T18Z_MSC_RDPS_VerticalVelocity_IsbL-0250_RLatLon0.09_PT084H.grib2 2026-05-09 21:04 415K
20260509T18Z_MSC_RDPS_VerticalVelocity_IsbL-0500_RLatLon0.09_PT084H.grib2 2026-05-09 21:04 527K
20260509T18Z_MSC_RDPS_VerticalVelocity_IsbL-0700_RLatLon0.09_PT084H.grib2 2026-05-09 21:04 584K
20260509T18Z_MSC_RDPS_VerticalVelocity_IsbL-0850_RLatLon0.09_PT084H.grib2 2026-05-09 21:04 687K
20260509T18Z_MSC_RDPS_VerticalWindShear_EtaL-6500_RLatLon0.09_PT084H.grib2 2026-05-09 21:04 1.2M
20260509T18Z_MSC_RDPS_WindChill_Sfc_RLatLon0.09_PT084H.grib2 2026-05-09 21:04 1.2M
20260509T18Z_MSC_RDPS_WindDir_AGL-10m_RLatLon0.09_PT084H.grib2 2026-05-09 21:04 1.0M
20260509T18Z_MSC_RDPS_WindDir_AGL-120m_RLatLon0.09_PT084H.grib2 2026-05-09 21:04 605K
20260509T18Z_MSC_RDPS_WindDir_AGL-40m_RLatLon0.09_PT084H.grib2 2026-05-09 21:04 641K
20260509T18Z_MSC_RDPS_WindDir_AGL-80m_RLatLon0.09_PT084H.grib2 2026-05-09 21:04 618K
20260509T18Z_MSC_RDPS_WindDir_IsbL-0001_RLatLon0.09_PT084H.grib2 2026-05-09 21:04 281K
20260509T18Z_MSC_RDPS_WindDir_IsbL-0005_RLatLon0.09_PT084H.grib2 2026-05-09 21:04 359K
20260509T18Z_MSC_RDPS_WindDir_IsbL-0010_RLatLon0.09_PT084H.grib2 2026-05-09 21:04 391K
20260509T18Z_MSC_RDPS_WindDir_IsbL-0020_RLatLon0.09_PT084H.grib2 2026-05-09 21:04 427K
20260509T18Z_MSC_RDPS_WindDir_IsbL-0030_RLatLon0.09_PT084H.grib2 2026-05-09 21:04 442K
20260509T18Z_MSC_RDPS_WindDir_IsbL-0050_RLatLon0.09_PT084H.grib2 2026-05-09 21:04 424K
20260509T18Z_MSC_RDPS_WindDir_IsbL-0100_RLatLon0.09_PT084H.grib2 2026-05-09 21:04 435K
20260509T18Z_MSC_RDPS_WindDir_IsbL-0150_RLatLon0.09_PT084H.grib2 2026-05-09 21:04 419K
20260509T18Z_MSC_RDPS_WindDir_IsbL-0175_RLatLon0.09_PT084H.grib2 2026-05-09 21:04 447K
20260509T18Z_MSC_RDPS_WindDir_IsbL-0200_RLatLon0.09_PT084H.grib2 2026-05-09 21:04 460K
20260509T18Z_MSC_RDPS_WindDir_IsbL-0225_RLatLon0.09_PT084H.grib2 2026-05-09 21:04 462K
20260509T18Z_MSC_RDPS_WindDir_IsbL-0250_RLatLon0.09_PT084H.grib2 2026-05-09 21:04 464K
20260509T18Z_MSC_RDPS_WindDir_IsbL-0275_RLatLon0.09_PT084H.grib2 2026-05-09 21:04 485K
20260509T18Z_MSC_RDPS_WindDir_IsbL-0300_RLatLon0.09_PT084H.grib2 2026-05-09 21:04 481K
20260509T18Z_MSC_RDPS_WindDir_IsbL-0350_RLatLon0.09_PT084H.grib2 2026-05-09 21:04 500K
20260509T18Z_MSC_RDPS_WindDir_IsbL-0400_RLatLon0.09_PT084H.grib2 2026-05-09 21:04 515K
20260509T18Z_MSC_RDPS_WindDir_IsbL-0450_RLatLon0.09_PT084H.grib2 2026-05-09 21:04 539K
20260509T18Z_MSC_RDPS_WindDir_IsbL-0500_RLatLon0.09_PT084H.grib2 2026-05-09 21:04 562K
20260509T18Z_MSC_RDPS_WindDir_IsbL-0550_RLatLon0.09_PT084H.grib2 2026-05-09 21:04 576K
20260509T18Z_MSC_RDPS_WindDir_IsbL-0600_RLatLon0.09_PT084H.grib2 2026-05-09 21:04 597K
20260509T18Z_MSC_RDPS_WindDir_IsbL-0650_RLatLon0.09_PT084H.grib2 2026-05-09 21:04 632K
20260509T18Z_MSC_RDPS_WindDir_IsbL-0700_RLatLon0.09_PT084H.grib2 2026-05-09 21:04 667K
20260509T18Z_MSC_RDPS_WindDir_IsbL-0750_RLatLon0.09_PT084H.grib2 2026-05-09 21:04 710K
20260509T18Z_MSC_RDPS_WindDir_IsbL-0800_RLatLon0.09_PT084H.grib2 2026-05-09 21:04 777K
20260509T18Z_MSC_RDPS_WindDir_IsbL-0850_RLatLon0.09_PT084H.grib2 2026-05-09 21:04 854K
20260509T18Z_MSC_RDPS_WindDir_IsbL-0875_RLatLon0.09_PT084H.grib2 2026-05-09 21:04 881K
20260509T18Z_MSC_RDPS_WindDir_IsbL-0900_RLatLon0.09_PT084H.grib2 2026-05-09 21:04 903K
20260509T18Z_MSC_RDPS_WindDir_IsbL-0925_RLatLon0.09_PT084H.grib2 2026-05-09 21:04 919K
20260509T18Z_MSC_RDPS_WindDir_IsbL-0950_RLatLon0.09_PT084H.grib2 2026-05-09 21:04 921K
20260509T18Z_MSC_RDPS_WindDir_IsbL-0970_RLatLon0.09_PT084H.grib2 2026-05-09 21:04 924K
20260509T18Z_MSC_RDPS_WindDir_IsbL-0985_RLatLon0.09_PT084H.grib2 2026-05-09 21:04 935K
20260509T18Z_MSC_RDPS_WindDir_IsbL-1000_RLatLon0.09_PT084H.grib2 2026-05-09 21:04 951K
20260509T18Z_MSC_RDPS_WindDir_IsbL-1015_RLatLon0.09_PT084H.grib2 2026-05-09 21:04 971K
20260509T18Z_MSC_RDPS_WindGust-Max_AGL-10m_RLatLon0.09_PT084H.grib2 2026-05-09 21:04 1.0M
20260509T18Z_MSC_RDPS_WindGust-Min_AGL-10m_RLatLon0.09_PT084H.grib2 2026-05-09 21:04 969K
20260509T18Z_MSC_RDPS_WindGust_AGL-10m_RLatLon0.09_PT084H.grib2 2026-05-09 21:04 1.0M
20260509T18Z_MSC_RDPS_WindSpeed_AGL-10m_RLatLon0.09_PT084H.grib2 2026-05-09 21:04 840K
20260509T18Z_MSC_RDPS_WindSpeed_AGL-120m_RLatLon0.09_PT084H.grib2 2026-05-09 21:04 541K
20260509T18Z_MSC_RDPS_WindSpeed_AGL-40m_RLatLon0.09_PT084H.grib2 2026-05-09 21:04 673K
20260509T18Z_MSC_RDPS_WindSpeed_AGL-80m_RLatLon0.09_PT084H.grib2 2026-05-09 21:04 671K
20260509T18Z_MSC_RDPS_WindSpeed_IsbL-0001_RLatLon0.09_PT084H.grib2 2026-05-09 21:04 250K
20260509T18Z_MSC_RDPS_WindSpeed_IsbL-0005_RLatLon0.09_PT084H.grib2 2026-05-09 21:04 355K
20260509T18Z_MSC_RDPS_WindSpeed_IsbL-0010_RLatLon0.09_PT084H.grib2 2026-05-09 21:04 359K
20260509T18Z_MSC_RDPS_WindSpeed_IsbL-0020_RLatLon0.09_PT084H.grib2 2026-05-09 21:04 319K
20260509T18Z_MSC_RDPS_WindSpeed_IsbL-0030_RLatLon0.09_PT084H.grib2 2026-05-09 21:04 317K
20260509T18Z_MSC_RDPS_WindSpeed_IsbL-0050_RLatLon0.09_PT084H.grib2 2026-05-09 21:04 334K
20260509T18Z_MSC_RDPS_WindSpeed_IsbL-0100_RLatLon0.09_PT084H.grib2 2026-05-09 21:04 437K
20260509T18Z_MSC_RDPS_WindSpeed_IsbL-0150_RLatLon0.09_PT084H.grib2 2026-05-09 21:04 467K
20260509T18Z_MSC_RDPS_WindSpeed_IsbL-0175_RLatLon0.09_PT084H.grib2 2026-05-09 21:04 392K
20260509T18Z_MSC_RDPS_WindSpeed_IsbL-0200_RLatLon0.09_PT084H.grib2 2026-05-09 21:04 414K
20260509T18Z_MSC_RDPS_WindSpeed_IsbL-0225_RLatLon0.09_PT084H.grib2 2026-05-09 21:04 442K
20260509T18Z_MSC_RDPS_WindSpeed_IsbL-0250_RLatLon0.09_PT084H.grib2 2026-05-09 21:04 446K
20260509T18Z_MSC_RDPS_WindSpeed_IsbL-0275_RLatLon0.09_PT084H.grib2 2026-05-09 21:04 462K
20260509T18Z_MSC_RDPS_WindSpeed_IsbL-0300_RLatLon0.09_PT084H.grib2 2026-05-09 21:04 458K
20260509T18Z_MSC_RDPS_WindSpeed_IsbL-0350_RLatLon0.09_PT084H.grib2 2026-05-09 21:04 467K
20260509T18Z_MSC_RDPS_WindSpeed_IsbL-0400_RLatLon0.09_PT084H.grib2 2026-05-09 21:04 450K
20260509T18Z_MSC_RDPS_WindSpeed_IsbL-0450_RLatLon0.09_PT084H.grib2 2026-05-09 21:04 454K
20260509T18Z_MSC_RDPS_WindSpeed_IsbL-0500_RLatLon0.09_PT084H.grib2 2026-05-09 21:04 574K
20260509T18Z_MSC_RDPS_WindSpeed_IsbL-0550_RLatLon0.09_PT084H.grib2 2026-05-09 21:04 577K
20260509T18Z_MSC_RDPS_WindSpeed_IsbL-0600_RLatLon0.09_PT084H.grib2 2026-05-09 21:04 630K
20260509T18Z_MSC_RDPS_WindSpeed_IsbL-0650_RLatLon0.09_PT084H.grib2 2026-05-09 21:04 653K
20260509T18Z_MSC_RDPS_WindSpeed_IsbL-0700_RLatLon0.09_PT084H.grib2 2026-05-09 21:04 678K
20260509T18Z_MSC_RDPS_WindSpeed_IsbL-0750_RLatLon0.09_PT084H.grib2 2026-05-09 21:04 708K
20260509T18Z_MSC_RDPS_WindSpeed_IsbL-0800_RLatLon0.09_PT084H.grib2 2026-05-09 21:04 748K
20260509T18Z_MSC_RDPS_WindSpeed_IsbL-0850_RLatLon0.09_PT084H.grib2 2026-05-09 21:04 812K
20260509T18Z_MSC_RDPS_WindSpeed_IsbL-0875_RLatLon0.09_PT084H.grib2 2026-05-09 21:04 834K
20260509T18Z_MSC_RDPS_WindSpeed_IsbL-0900_RLatLon0.09_PT084H.grib2 2026-05-09 21:04 848K
20260509T18Z_MSC_RDPS_WindSpeed_IsbL-0925_RLatLon0.09_PT084H.grib2 2026-05-09 21:04 865K
20260509T18Z_MSC_RDPS_WindSpeed_IsbL-0950_RLatLon0.09_PT084H.grib2 2026-05-09 21:04 866K
20260509T18Z_MSC_RDPS_WindSpeed_IsbL-0970_RLatLon0.09_PT084H.grib2 2026-05-09 21:04 866K
20260509T18Z_MSC_RDPS_WindSpeed_IsbL-0985_RLatLon0.09_PT084H.grib2 2026-05-09 21:04 859K
20260509T18Z_MSC_RDPS_WindSpeed_IsbL-1000_RLatLon0.09_PT084H.grib2 2026-05-09 21:04 850K
20260509T18Z_MSC_RDPS_WindSpeed_IsbL-1015_RLatLon0.09_PT084H.grib2 2026-05-09 21:04 842K
20260509T18Z_MSC_RDPS_WindU_AGL-10m_RLatLon0.09_PT084H.grib2 2026-05-09 21:04 431K
20260509T18Z_MSC_RDPS_WindU_AGL-120m_RLatLon0.09_PT084H.grib2 2026-05-09 21:04 535K
20260509T18Z_MSC_RDPS_WindU_AGL-40m_RLatLon0.09_PT084H.grib2 2026-05-09 21:04 538K
20260509T18Z_MSC_RDPS_WindU_AGL-80m_RLatLon0.09_PT084H.grib2 2026-05-09 21:04 536K
20260509T18Z_MSC_RDPS_WindU_IsbL-0001_RLatLon0.09_PT084H.grib2 2026-05-09 21:04 292K
20260509T18Z_MSC_RDPS_WindU_IsbL-0005_RLatLon0.09_PT084H.grib2 2026-05-09 21:04 284K
20260509T18Z_MSC_RDPS_WindU_IsbL-0010_RLatLon0.09_PT084H.grib2 2026-05-09 21:04 294K
20260509T18Z_MSC_RDPS_WindU_IsbL-0020_RLatLon0.09_PT084H.grib2 2026-05-09 21:04 351K
20260509T18Z_MSC_RDPS_WindU_IsbL-0030_RLatLon0.09_PT084H.grib2 2026-05-09 21:04 349K
20260509T18Z_MSC_RDPS_WindU_IsbL-0050_RLatLon0.09_PT084H.grib2 2026-05-09 21:04 332K
20260509T18Z_MSC_RDPS_WindU_IsbL-0100_RLatLon0.09_PT084H.grib2 2026-05-09 21:04 457K
20260509T18Z_MSC_RDPS_WindU_IsbL-0150_RLatLon0.09_PT084H.grib2 2026-05-09 21:04 359K
20260509T18Z_MSC_RDPS_WindU_IsbL-0175_RLatLon0.09_PT084H.grib2 2026-05-09 21:04 408K
20260509T18Z_MSC_RDPS_WindU_IsbL-0200_RLatLon0.09_PT084H.grib2 2026-05-09 21:04 426K
20260509T18Z_MSC_RDPS_WindU_IsbL-0225_RLatLon0.09_PT084H.grib2 2026-05-09 21:04 433K
20260509T18Z_MSC_RDPS_WindU_IsbL-0250_RLatLon0.09_PT084H.grib2 2026-05-09 21:04 434K
20260509T18Z_MSC_RDPS_WindU_IsbL-0275_RLatLon0.09_PT084H.grib2 2026-05-09 21:04 451K
20260509T18Z_MSC_RDPS_WindU_IsbL-0300_RLatLon0.09_PT084H.grib2 2026-05-09 21:04 445K
20260509T18Z_MSC_RDPS_WindU_IsbL-0350_RLatLon0.09_PT084H.grib2 2026-05-09 21:04 454K
20260509T18Z_MSC_RDPS_WindU_IsbL-0400_RLatLon0.09_PT084H.grib2 2026-05-09 21:04 455K
20260509T18Z_MSC_RDPS_WindU_IsbL-0450_RLatLon0.09_PT084H.grib2 2026-05-09 21:04 460K
20260509T18Z_MSC_RDPS_WindU_IsbL-0500_RLatLon0.09_PT084H.grib2 2026-05-09 21:04 464K
20260509T18Z_MSC_RDPS_WindU_IsbL-0550_RLatLon0.09_PT084H.grib2 2026-05-09 21:04 449K
20260509T18Z_MSC_RDPS_WindU_IsbL-0600_RLatLon0.09_PT084H.grib2 2026-05-09 21:04 459K
20260509T18Z_MSC_RDPS_WindU_IsbL-0650_RLatLon0.09_PT084H.grib2 2026-05-09 21:04 479K
20260509T18Z_MSC_RDPS_WindU_IsbL-0700_RLatLon0.09_PT084H.grib2 2026-05-09 21:04 502K
20260509T18Z_MSC_RDPS_WindU_IsbL-0750_RLatLon0.09_PT084H.grib2 2026-05-09 21:04 528K
20260509T18Z_MSC_RDPS_WindU_IsbL-0800_RLatLon0.09_PT084H.grib2 2026-05-09 21:04 571K
20260509T18Z_MSC_RDPS_WindU_IsbL-0850_RLatLon0.09_PT084H.grib2 2026-05-09 21:04 619K
20260509T18Z_MSC_RDPS_WindU_IsbL-0875_RLatLon0.09_PT084H.grib2 2026-05-09 21:04 774K
20260509T18Z_MSC_RDPS_WindU_IsbL-0900_RLatLon0.09_PT084H.grib2 2026-05-09 21:04 792K
20260509T18Z_MSC_RDPS_WindU_IsbL-0925_RLatLon0.09_PT084H.grib2 2026-05-09 21:04 804K
20260509T18Z_MSC_RDPS_WindU_IsbL-0950_RLatLon0.09_PT084H.grib2 2026-05-09 21:04 802K
20260509T18Z_MSC_RDPS_WindU_IsbL-0970_RLatLon0.09_PT084H.grib2 2026-05-09 21:04 798K
20260509T18Z_MSC_RDPS_WindU_IsbL-0985_RLatLon0.09_PT084H.grib2 2026-05-09 21:04 791K
20260509T18Z_MSC_RDPS_WindU_IsbL-1000_RLatLon0.09_PT084H.grib2 2026-05-09 21:04 785K
20260509T18Z_MSC_RDPS_WindU_IsbL-1015_RLatLon0.09_PT084H.grib2 2026-05-09 21:04 826K
20260509T18Z_MSC_RDPS_WindV_AGL-10m_RLatLon0.09_PT084H.grib2 2026-05-09 21:04 429K
20260509T18Z_MSC_RDPS_WindV_AGL-120m_RLatLon0.09_PT084H.grib2 2026-05-09 21:04 536K
20260509T18Z_MSC_RDPS_WindV_AGL-40m_RLatLon0.09_PT084H.grib2 2026-05-09 21:04 538K
20260509T18Z_MSC_RDPS_WindV_AGL-80m_RLatLon0.09_PT084H.grib2 2026-05-09 21:04 537K
20260509T18Z_MSC_RDPS_WindV_IsbL-0001_RLatLon0.09_PT084H.grib2 2026-05-09 21:04 247K
20260509T18Z_MSC_RDPS_WindV_IsbL-0005_RLatLon0.09_PT084H.grib2 2026-05-09 21:04 285K
20260509T18Z_MSC_RDPS_WindV_IsbL-0010_RLatLon0.09_PT084H.grib2 2026-05-09 21:04 295K
20260509T18Z_MSC_RDPS_WindV_IsbL-0020_RLatLon0.09_PT084H.grib2 2026-05-09 21:04 353K
20260509T18Z_MSC_RDPS_WindV_IsbL-0030_RLatLon0.09_PT084H.grib2 2026-05-09 21:04 312K
20260509T18Z_MSC_RDPS_WindV_IsbL-0050_RLatLon0.09_PT084H.grib2 2026-05-09 21:04 333K
20260509T18Z_MSC_RDPS_WindV_IsbL-0100_RLatLon0.09_PT084H.grib2 2026-05-09 21:04 414K
20260509T18Z_MSC_RDPS_WindV_IsbL-0150_RLatLon0.09_PT084H.grib2 2026-05-09 21:04 380K
20260509T18Z_MSC_RDPS_WindV_IsbL-0175_RLatLon0.09_PT084H.grib2 2026-05-09 21:04 407K
20260509T18Z_MSC_RDPS_WindV_IsbL-0200_RLatLon0.09_PT084H.grib2 2026-05-09 21:04 425K
20260509T18Z_MSC_RDPS_WindV_IsbL-0225_RLatLon0.09_PT084H.grib2 2026-05-09 21:04 335K
20260509T18Z_MSC_RDPS_WindV_IsbL-0250_RLatLon0.09_PT084H.grib2 2026-05-09 21:04 336K
20260509T18Z_MSC_RDPS_WindV_IsbL-0275_RLatLon0.09_PT084H.grib2 2026-05-09 21:04 373K
20260509T18Z_MSC_RDPS_WindV_IsbL-0300_RLatLon0.09_PT084H.grib2 2026-05-09 21:04 344K
20260509T18Z_MSC_RDPS_WindV_IsbL-0350_RLatLon0.09_PT084H.grib2 2026-05-09 21:04 351K
20260509T18Z_MSC_RDPS_WindV_IsbL-0400_RLatLon0.09_PT084H.grib2 2026-05-09 21:04 353K
20260509T18Z_MSC_RDPS_WindV_IsbL-0450_RLatLon0.09_PT084H.grib2 2026-05-09 21:04 458K
20260509T18Z_MSC_RDPS_WindV_IsbL-0500_RLatLon0.09_PT084H.grib2 2026-05-09 21:04 462K
20260509T18Z_MSC_RDPS_WindV_IsbL-0550_RLatLon0.09_PT084H.grib2 2026-05-09 21:04 465K
20260509T18Z_MSC_RDPS_WindV_IsbL-0600_RLatLon0.09_PT084H.grib2 2026-05-09 21:04 474K
20260509T18Z_MSC_RDPS_WindV_IsbL-0650_RLatLon0.09_PT084H.grib2 2026-05-09 21:04 492K
20260509T18Z_MSC_RDPS_WindV_IsbL-0700_RLatLon0.09_PT084H.grib2 2026-05-09 21:04 498K
20260509T18Z_MSC_RDPS_WindV_IsbL-0750_RLatLon0.09_PT084H.grib2 2026-05-09 21:04 525K
20260509T18Z_MSC_RDPS_WindV_IsbL-0800_RLatLon0.09_PT084H.grib2 2026-05-09 21:04 567K
20260509T18Z_MSC_RDPS_WindV_IsbL-0850_RLatLon0.09_PT084H.grib2 2026-05-09 21:04 615K
20260509T18Z_MSC_RDPS_WindV_IsbL-0875_RLatLon0.09_PT084H.grib2 2026-05-09 21:04 635K
20260509T18Z_MSC_RDPS_WindV_IsbL-0900_RLatLon0.09_PT084H.grib2 2026-05-09 21:04 651K
20260509T18Z_MSC_RDPS_WindV_IsbL-0925_RLatLon0.09_PT084H.grib2 2026-05-09 21:04 661K
20260509T18Z_MSC_RDPS_WindV_IsbL-0950_RLatLon0.09_PT084H.grib2 2026-05-09 21:04 660K
20260509T18Z_MSC_RDPS_WindV_IsbL-0970_RLatLon0.09_PT084H.grib2 2026-05-09 21:04 799K
20260509T18Z_MSC_RDPS_WindV_IsbL-0985_RLatLon0.09_PT084H.grib2 2026-05-09 21:04 794K
20260509T18Z_MSC_RDPS_WindV_IsbL-1000_RLatLon0.09_PT084H.grib2 2026-05-09 21:04 832K
20260509T18Z_MSC_RDPS_WindV_IsbL-1015_RLatLon0.09_PT084H.grib2 2026-05-09 21:04 824K